Fort Smith, AR

10:38 PM CST on February 12, 2016 (GMT -0600)
Fort Smith Regional

Weather History for KFSM - October, 2012

Change the Weather History Date:

Saturday, October 13, 2012

  Actual Average Record
Temperature  
Mean Temperature 73 °F 64 °F  
Max Temperature 83 °F 76 °F 94 °F (1963)
Min Temperature 63 °F 52 °F 32 °F (1977)
Degree Days  
Heating Degree Days 0 3  
Month to date heating degree days 60 34  
Since 1 July heating degree days 60 51  
Cooling Degree Days 8 2  
Month to date cooling degree days 30 42  
Year to date cooling degree days 2822 2020  
Growing Degree Days 22 (Base 50)    
Moisture  
Dew Point 64 °F    
Average Humidity 78    
Maximum Humidity 100    
Minimum Humidity 55    
Precipitation  
Precipitation 1.05 in 0.13 in 2.04 in (2014)
Month to date precipitation 2.61 1.72  
Year to date precipitation 30.86 35.13  
Sea Level Pressure  
Sea Level Pressure 29.97 in    
Wind  
Wind Speed 9 mph (ESE)    
Max Wind Speed 35 mph    
Max Gust Speed 40 mph    
Visibility 5 miles    
Events Fog , Rain , Thunderstorm    
T = Trace of Precipitation, MM = Missing Value Source: NWS Daily Summary

Daily Weather History Graph

Daily Weather History Graph

Search for Another Location

Airport or City:

Trip Planner

Search our weather history database for the weather conditions in past years. The results will help you decide how hot, cold, wet, or windy it might be!

Date:

Astronomy

Oct. 13, 2012 Rise Set
Actual Time 7:22 AM CDT 6:44 PM CDT
Civil Twilight 6:56 AM CDT 7:09 PM CDT
Nautical Twilight 6:27 AM CDT 7:39 PM CDT
Astronomical Twilight 5:57 AM CDT 8:08 PM CDT
Moon 5:16 AM CDT 5:26 PM CDT
Length of Visible Light 12h 12m
Length of Day
11h 21m
Waning Crescent, 5% of the Moon is Illuminated
Oct 13
Waning Crescent
Oct 15
New
Oct 21
First Quarter
Oct 29
Full
Nov 6
Last Quarter

Hourly Weather History & Observations

Time (CDT) Temp. Heat Index Dew Point Humidity Pressure Visibility Wind Dir Wind Speed Gust Speed Precip Events Conditions
12:08 AM 64.4 °F - 62.6 °F 94% 30.13 in 1.0 mi ENE 8.1 mph - N/A   Overcast
12:16 AM 64.4 °F - 62.6 °F 94% 30.13 in 0.5 mi East 8.1 mph - N/A Fog Fog
12:30 AM 62.6 °F - 62.6 °F 100% 30.12 in 0.2 mi East 8.1 mph - N/A Fog Fog
12:37 AM 62.6 °F - 62.6 °F 100% 30.12 in 0.5 mi East 9.2 mph - N/A Fog Fog
12:53 AM 63.0 °F - 62.1 °F 97% 30.11 in 0.5 mi East 6.9 mph - N/A Fog Fog
1:53 AM 64.0 °F - 62.1 °F 93% 30.10 in 0.8 mi East 9.2 mph - N/A   Mist
2:39 AM 64.4 °F - 62.6 °F 94% 30.09 in 1.0 mi East 6.9 mph - N/A   Mist
2:53 AM 64.0 °F - 63.0 °F 96% 30.08 in 1.0 mi East 6.9 mph - N/A   Overcast
3:06 AM 64.4 °F - 62.6 °F 94% 30.08 in 0.8 mi East 4.6 mph - N/A   Overcast
3:15 AM 64.4 °F - 62.6 °F 94% 30.09 in 1.0 mi ENE 5.8 mph - N/A   Overcast
3:24 AM 64.4 °F - 62.6 °F 94% 30.08 in 0.8 mi East 8.1 mph - N/A   Mist
3:32 AM 64.4 °F - 62.6 °F 94% 30.08 in 1.0 mi East 8.1 mph - N/A   Mist
3:53 AM 64.0 °F - 63.0 °F 96% 30.07 in 1.0 mi East 6.9 mph - N/A   Overcast
4:28 AM 64.4 °F - 62.6 °F 94% 30.08 in 2.0 mi East 5.8 mph - N/A   Overcast
4:53 AM 64.9 °F - 63.0 °F 93% 30.07 in 3.0 mi East 8.1 mph - N/A   Overcast
5:53 AM 64.9 °F - 63.0 °F 93% 30.08 in 4.0 mi ENE 6.9 mph - N/A   Overcast
6:53 AM 64.9 °F - 63.0 °F 93% 30.08 in 3.0 mi East 6.9 mph - N/A   Overcast
7:40 AM 64.4 °F - 62.6 °F 94% 30.07 in 2.0 mi East 5.8 mph - N/A   Overcast
7:53 AM 64.9 °F - 63.0 °F 93% 30.06 in 2.0 mi East 5.8 mph - N/A   Overcast
8:38 AM 66.2 °F - 62.6 °F 88% 30.08 in 3.0 mi East 8.1 mph - N/A   Mostly Cloudy
8:44 AM 66.2 °F - 62.6 °F 88% 30.08 in 3.0 mi East 8.1 mph - N/A   Scattered Clouds
8:53 AM 66.9 °F - 64.0 °F 90% 30.07 in 4.0 mi East 6.9 mph - N/A   Partly Cloudy
9:53 AM 71.1 °F - 64.9 °F 81% 30.04 in 7.0 mi East 6.9 mph - N/A   Clear
10:53 AM 75.0 °F - 66.0 °F 73% 30.04 in 10.0 mi Variable 3.5 mph - N/A   Mostly Cloudy
11:53 AM 80.1 °F 81.7 °F 64.0 °F 58% 30.01 in 10.0 mi South 13.8 mph 23.0 mph N/A   Mostly Cloudy
12:53 PM 82.4 °F 83.9 °F 64.4 °F 54% 29.97 in 10.0 mi South 12.7 mph 21.9 mph N/A   Overcast
1:53 PM 78.1 °F - 64.0 °F 62% 29.93 in 10.0 mi South 13.8 mph 18.4 mph N/A   Overcast
2:53 PM 78.8 °F - 64.4 °F 61% 29.92 in 10.0 mi South 11.5 mph 19.6 mph N/A   Overcast
3:53 PM 75.9 °F - 66.0 °F 71% 29.89 in 10.0 mi SSE 9.2 mph - N/A   Overcast
4:25 PM 75.2 °F - 66.2 °F 73% 29.90 in 10.0 mi SSE 6.9 mph - N/A   Overcast
4:53 PM 75.9 °F - 66.0 °F 71% 29.86 in 10.0 mi SE 10.4 mph - N/A   Overcast
5:53 PM 75.9 °F - 66.0 °F 71% 29.83 in 10.0 mi ESE 10.4 mph - N/A   Mostly Cloudy
6:03 PM 75.2 °F - 66.2 °F 73% 29.84 in 10.0 mi ESE 9.2 mph - N/A Thunderstorm Thunderstorm
7:01 PM 75.2 °F - 66.2 °F 73% 29.82 in 10.0 mi SE 8.1 mph - N/A   Partly Cloudy
7:53 PM 75.9 °F - 66.0 °F 71% 29.80 in 10.0 mi ESE 8.1 mph - N/A   Overcast
8:53 PM 75.2 °F - 66.2 °F 73% 29.82 in 10.0 mi South 5.8 mph - N/A   Overcast
9:51 PM 71.6 °F - 64.4 °F 78% 29.84 in 3.0 mi WNW 29.9 mph 39.1 mph 0.02 in Rain Heavy Rain
9:53 PM 69.1 °F - 64.0 °F 84% 29.83 in 2.5 mi WNW 27.6 mph 39.1 mph 0.02 in Rain Heavy Rain
9:58 PM 66.2 °F - 64.4 °F 94% 29.83 in 1.8 mi West 15.0 mph 39.1 mph 0.06 in Rain Heavy Rain
10:05 PM 66.2 °F - 64.4 °F 94% 29.83 in 2.0 mi West 15.0 mph 21.9 mph 0.16 in Rain Heavy Rain
10:12 PM 66.2 °F - 64.4 °F 94% 29.85 in 1.5 mi West 24.2 mph 29.9 mph 0.24 in Rain Heavy Rain
10:19 PM 66.2 °F - 64.4 °F 94% 29.84 in 0.8 mi West 26.5 mph 40.3 mph 0.37 in Rain Heavy Rain
10:28 PM 66.2 °F - 62.6 °F 88% 29.82 in 1.0 mi SSW 18.4 mph 40.3 mph 0.74 in Rain Heavy Rain
10:34 PM 66.2 °F - 62.6 °F 88% 29.82 in 2.0 mi SSW 13.8 mph 27.6 mph N/A Rain Heavy Rain
10:40 PM 66.2 °F - 62.6 °F 88% 29.81 in 5.0 mi South 11.5 mph 24.2 mph N/A Rain , Thunderstorm Light Rain
10:53 PM 66.0 °F - 62.1 °F 87% 29.78 in 10.0 mi South 6.9 mph - 0.90 in Rain , Thunderstorm Light Thunderstorms and Rain
11:29 PM 66.2 °F - 62.6 °F 88% 29.82 in 10.0 mi SSW 16.1 mph 20.7 mph 0.02 in Rain , Thunderstorm Light Rain
11:50 PM 66.2 °F - 62.6 °F 88% 29.83 in 8.0 mi SSW 13.8 mph - N/A Rain Rain
11:53 PM 66.2 °F - 62.6 °F 88% 29.82 in 7.0 mi SSW 10.4 mph - N/A Rain , Thunderstorm Thunderstorms and Rain